Wind_Speed
36 36 36 37 37 37 37 38 38 38 39 40 40 40 40 40 40 40 40 41 40 40 40 39 39 39 39 39 39 38 38 37 37 36 36 36 36 36 36 36 36 36 36
37 38 37 38 38 38 39 39 39 39 40 41 41 41 42 41 41 41 41 41 42 41 40 40 40 40 40 40 39 39 38 38 38 37 37 37 37 37 37 37 37 37 37
38 38 39 39 39 39 39 40 40 40 41 42 42 42 42 42 42 42 43 43 42 42 42 42 42 41 41 41 40 40 39 39 38 38 38 37 36 37 36 36 37 37 38
39 39 39 40 40 40 40 40 40 40 41 41 42 42 41 42 42 42 43 43 43 42 42 42 43 43 42 41 41 40 40 40 40 39 39 38 38 37 37 37 37 37 38
39 39 39 40 40 40 40 40 40 40 40 41 41 41 42 42 42 42 42 42 42 42 42 42 43 43 43 42 41 42 41 41 41 41 40 40 39 39 39 39 39 39 40
40 40 40 40 40 40 40 40 40 40 40 41 41 42 42 42 42 43 42 42 42 42 42 43 44 44 44 43 42 42 42 42 42 42 42 41 41 40 40 41 41 41 41
39 40 40 39 39 40 40 40 40 40 41 41 41 42 42 42 42 42 42 42 42 42 42 43 44 44 44 43 43 42 42 42 42 42 42 42 42 42 41 42 42 42 42
38 38 38 38 39 39 40 41 41 41 41 40 40 41 41 42 41 41 41 41 42 42 42 42 43 44 44 44 44 43 42 42 43 43 43 43 43 42 42 42 43 43 43
36 37 38 38 38 39 39 40 40 40 40 40 40 40 40 41 40 40 40 40 41 41 42 42 43 44 44 44 44 43 42 42 43 43 44 43 43 44 43 43 43 43 43
34 35 36 37 37 37 38 39 39 39 39 40 40 40 40 39 39 39 39 39 40 40 40 41 42 43 43 43 42 42 42 42 42 43 44 44 44 44 43 42 42 42 43
34 35 35 36 36 37 37 38 38 38 38 38 39 39 39 39 39 39 38 38 38 39 39 38 39 40 40 41 41 41 41 42 42 42 43 44 44 43 43 42 42 43 43
34 35 35 35 35 35 36 36 37 37 36 37 37 37 37 37 37 37 37 37 37 37 38 37 37 37 38 38 39 41 41 41 42 42 43 43 42 42 43 42 42 42 43
34 34 34 35 34 35 35 35 35 35 35 35 36 36 36 35 35 35 35 36 36 36 36 36 36 36 37 37 37 39 40 40 40 41 41 42 42 41 41 41 42 42 41
34 33 33 33 33 34 34 34 34 34 35 35 35 35 34 34 33 34 35 35 36 36 35 36 35 36 36 36 36 37 38 38 39 39 40 40 40 40 40 40 40 40 40
34 34 33 33 33 33 33 33 33 34 34 34 34 34 34 34 33 34 34 35 35 36 36 35 35 35 35 35 35 36 36 37 37 37 38 38 38 39 39 39 40 40 40
35 35 34 33 33 33 33 33 32 32 33 33 33 32 33 33 33 34 34 34 35 35 35 35 34 34 34 35 34 34 34 35 36 36 36 37 37 38 38 39 39 40 40
35 34 34 34 33 32 32 33 32 32 31 31 31 31 32 32 33 33 33 33 33 33 33 34 33 33 33 33 33 33 33 34 35 35 35 36 36 37 38 38 38 39 40
35 34 34 33 33 33 33 33 33 33 32 32 31 31 31 31 31 32 32 32 32 32 32 32 32 32 32 32 33 33 33 34 34 33 34 35 35 35 36 37 37 38 39
36 35 34 34 34 34 33 33 33 33 32 31 31 30 31 31 31 31 30 31 31 31 32 32 32 32 32 32 33 32 32 32 33 33 33 34 34 34 35 36 37 37 37
36 36 35 34 33 33 33 33 33 32 32 31 31 31 31 32 31 31 31 31 31 31 31 31 31 31 31 32 32 31 31 32 32 33 32 32 33 34 34 35 35 36 36
35 35 35 34 34 33 33 32 32 32 32 32 32 31 31 31 31 31 30 30 31 31 31 31 30 30 30 31 31 32 31 31 31 31 32 32 32 33 34 35 35 35 35
33 33 33 33 33 33 32 32 32 32 31 31 31 30 30 30 30 31 30 30 30 30 31 31 31 31 30 30 31 31 31 30 30 30 32 32 33 33 34 34 35 35 35
33 32 31 31 31 32 32 32 32 31 31 30 30 30 29 29 30 31 31 30 29 30 30 30 30 30 30 30 30 30 30 30 29 30 31 32 33 33 34 35 35 35 35
31 31 31 30 30 30 31 31 31 30 30 29 29 29 29 29 30 30 29 30 30 30 30 30 30 31 31 30 30 30 30 30 30 30 31 32 33 33 34 35 34 34 34
29 29 29 29 28 29 29 29 28 29 29 29 29 29 29 28 29 29 28 28 29 29 30 30 30 30 30 30 29 29 30 30 30 31 31 31 32 33 33 33 32 32 32
28 28 28 28 28 27 27 27 27 27 27 27 28 28 28 27 27 27 27 27 28 28 29 29 29 29 29 29 28 29 29 30 30 30 30 30 31 31 31 31 30 30 30
Wind_Direction
265 265 266 268 269 270 270 271 270 269 269 268 267 267 267 267 268 268 268 267 267 266 266 266 266 266 267 268 269 270 270 270 271 272 271 270 272 272 273 272 271 270 269
266 266 267 269 270 271 271 271 271 270 269 268 267 267 267 267 268 269 269 268 267 266 266 265 265 265 266 267 268 270 270 270 270 271 271 270 271 272 273 273 272 271 271
266 267 269 270 270 271 272 272 272 271 270 269 268 268 268 268 269 268 268 267 267 267 266 265 264 264 265 266 268 269 269 269 269 270 272 272 271 271 273 274 273 273 272
267 268 269 270 270 271 272 272 273 272 270 269 268 267 267 268 268 268 268 268 267 266 265 265 264 263 264 265 266 268 269 268 269 270 271 273 273 271 272 273 274 274 274
269 269 270 270 270 271 271 273 273 272 271 270 269 268 267 267 268 268 268 267 267 266 264 263 263 263 263 264 265 267 268 268 269 270 271 272 274 274 273 272 273 274 275
270 270 270 270 271 270 271 272 272 271 271 271 270 269 268 267 268 267 266 266 265 265 264 262 261 262 263 263 263 266 267 268 269 270 271 273 274 275 274 273 273 274 275
273 272 271 271 271 271 271 272 273 272 272 272 271 270 268 268 268 267 265 265 264 264 263 262 261 261 261 262 263 265 267 268 269 270 272 272 273 275 275 275 275 275 276
274 274 273 272 272 272 272 273 273 273 272 272 272 270 268 266 266 266 264 264 263 264 264 264 263 262 261 261 262 264 267 268 269 270 271 272 274 274 275 276 276 276 276
275 274 273 273 273 273 274 274 274 272 272 272 271 270 269 267 266 266 264 264 263 264 264 264 264 263 261 260 261 263 266 268 269 270 270 271 273 273 275 275 276 277 276
274 274 274 275 274 275 275 275 274 273 273 273 272 271 270 268 267 266 264 264 264 264 265 266 266 264 262 261 261 262 265 267 268 269 270 271 272 273 273 274 275 277 277
273 273 274 276 276 276 276 276 275 273 272 273 273 271 270 269 267 266 265 266 266 266 266 266 266 265 264 262 262 263 265 266 267 268 270 271 272 272 273 273 275 276 277
275 275 275 276 277 277 276 276 275 274 273 274 273 272 270 268 268 267 267 267 267 267 267 266 266 266 266 264 263 263 265 267 268 269 270 271 271 272 273 273 275 276 277
275 276 276 276 277 276 276 275 273 273 274 275 275 272 270 268 267 267 267 267 267 267 267 268 268 268 267 265 265 265 265 267 268 268 269 270 270 272 273 274 275 277 278
275 276 277 277 278 278 278 276 274 273 274 276 276 272 270 268 267 267 266 266 266 266 267 269 269 269 268 266 266 266 266 267 268 269 269 270 271 273 274 274 275 277 279
274 275 277 278 279 279 278 277 275 274 275 276 276 272 269 267 267 267 267 267 266 266 266 267 268 268 268 267 266 266 267 267 269 269 269 270 271 273 274 275 276 278 279
274 274 276 277 278 278 277 276 275 274 275 276 276 273 269 268 267 268 267 267 267 266 265 265 266 267 268 266 265 266 267 268 269 270 270 270 271 273 274 276 278 279 280
274 274 275 275 276 276 276 274 274 275 276 276 276 273 270 268 268 268 269 268 268 267 265 265 266 267 268 266 265 265 267 269 269 269 270 272 272 273 275 276 278 280 280
274 274 274 273 273 273 273 272 272 273 274 274 273 272 270 268 268 268 269 269 269 267 265 266 266 267 268 267 266 265 266 267 268 269 271 273 273 274 277 278 279 280 281
275 275 274 272 271 271 271 270 271 272 273 273 271 270 268 268 268 267 267 269 270 268 266 266 266 267 268 267 266 267 267 266 267 269 272 274 275 276 278 279 279 281 282
275 274 273 272 271 270 270 270 270 271 271 271 270 268 268 268 267 267 267 268 268 267 265 266 266 267 269 269 268 267 267 267 267 270 272 276 276 277 278 280 280 281 283
276 273 272 271 271 270 270 270 271 271 270 270 271 269 268 268 267 267 267 268 267 265 264 265 267 268 270 270 269 268 267 268 268 271 273 274 277 278 279 281 281 283 284
277 275 273 272 271 270 269 270 271 271 270 269 269 270 269 267 266 267 267 267 267 266 264 265 267 268 269 270 270 269 267 266 267 270 272 274 276 278 281 282 283 283 285
277 275 273 272 271 270 270 270 270 269 268 267 267 268 268 267 267 268 267 266 266 265 265 265 266 267 269 271 271 269 268 268 268 271 272 274 278 280 282 284 285 285 285
277 274 274 273 271 270 270 269 268 266 266 266 266 266 267 268 269 269 267 266 266 266 266 267 268 269 271 272 272 270 270 269 269 272 275 275 278 281 284 284 285 286 287
277 275 274 273 272 271 271 269 268 266 266 265 265 266 267 269 268 268 268 268 268 267 267 268 268 269 271 272 271 270 270 271 271 272 274 276 279 281 283 285 286 287 287
277 276 275 274 272 271 270 269 268 268 267 266 265 265 267 268 269 269 268 268 269 268 267 267 267 268 269 270 271 271 270 272 273 273 275 277 279 281 283 284 285 287 288
Height
5727 5727 5728 5729 5729 5730 5730 5730 5730 5730 5730 5731 5732 5732 5733 5734 5734 5735 5735 5736 5736 5737 5738 5739 5739 5740 5740 5740 5740 5740 5740 5740 5739 5740 5740 5740 5740 5741 5741 5742 5742 5742 5743
5718 5718 5719 5720 5720 5720 5720 5720 5720 5720 5720 5721 5721 5722 5723 5723 5724 5725 5725 5726 5726 5727 5728 5729 5729 5730 5731 5731 5731 5731 5731 5731 5731 5731 5731 5732 5733 5732 5733 5733 5733 5734 5734
5709 5710 5710 5710 5710 5710 5710 5710 5710 5709 5710 5710 5711 5711 5712 5713 5713 5714 5714 5715 5715 5717 5717 5718 5719 5720 5721 5721 5721 5721 5722 5722 5722 5722 5722 5723 5724 5724 5724 5724 5724 5724 5725
5699 5700 5700 5700 5700 5700 5700 5699 5699 5699 5699 5699 5700 5701 5702 5702 5703 5703 5703 5704 5704 5705 5706 5707 5708 5709 5710 5711 5711 5711 5712 5712 5712 5713 5713 5714 5714 5715 5716 5716 5715 5715 5715
5689 5690 5690 5690 5690 5690 5689 5689 5689 5689 5689 5689 5689 5690 5691 5691 5692 5692 5692 5693 5693 5694 5695 5696 5697 5698 5699 5700 5701 5701 5702 5702 5703 5703 5704 5704 5704 5705 5706 5707 5707 5706 5706
5679 5679 5680 5679 5679 5679 5679 5679 5678 5678 5678 5678 5678 5679 5679 5680 5680 5680 5681 5681 5682 5683 5683 5684 5686 5687 5688 5689 5690 5691 5691 5692 5693 5693 5694 5694 5695 5695 5696 5696 5697 5697 5696
5669 5669 5669 5669 5669 5669 5669 5668 5668 5668 5668 5667 5667 5667 5668 5668 5668 5668 5669 5670 5671 5672 5672 5673 5674 5675 5677 5678 5679 5680 5681 5682 5682 5683 5684 5684 5684 5685 5685 5686 5686 5686 5686
5660 5659 5659 5659 5659 5659 5658 5658 5657 5657 5657 5656 5656 5655 5656 5656 5656 5657 5657 5659 5660 5660 5661 5662 5663 5664 5665 5667 5668 5670 5670 5671 5672 5672 5673 5673 5674 5674 5674 5675 5674 5674 5674
5650 5650 5649 5649 5649 5648 5648 5647 5647 5646 5646 5645 5644 5644 5644 5644 5645 5646 5646 5647 5649 5649 5650 5650 5651 5652 5654 5655 5657 5659 5660 5660 5661 5661 5662 5663 5663 5663 5663 5663 5663 5663 5663
5640 5640 5639 5639 5639 5638 5637 5636 5636 5635 5634 5634 5633 5633 5633 5633 5634 5634 5635 5636 5637 5638 5639 5639 5640 5641 5642 5644 5645 5647 5648 5649 5650 5650 5651 5651 5652 5652 5652 5652 5651 5651 5651
5631 5630 5629 5629 5629 5628 5627 5626 5625 5624 5624 5623 5623 5623 5623 5622 5623 5624 5624 5625 5626 5627 5628 5629 5629 5630 5631 5632 5634 5636 5637 5638 5639 5639 5640 5640 5640 5640 5641 5640 5640 5639 5639
5621 5620 5620 5620 5619 5618 5617 5616 5615 5614 5614 5613 5613 5612 5612 5612 5612 5613 5614 5615 5616 5617 5618 5618 5619 5620 5621 5622 5623 5625 5626 5627 5628 5628 5629 5629 5629 5629 5629 5629 5629 5628 5627
5612 5611 5610 5610 5609 5608 5607 5606 5605 5604 5604 5603 5602 5602 5602 5602 5603 5603 5604 5605 5606 5607 5607 5608 5609 5609 5610 5611 5612 5614 5615 5616 5616 5617 5617 5618 5618 5618 5618 5618 5617 5617 5616
5603 5602 5601 5600 5599 5598 5597 5596 5596 5595 5594 5593 5592 5592 5592 5593 5593 5594 5594 5595 5596 5597 5598 5598 5599 5599 5600 5601 5602 5603 5604 5605 5606 5606 5606 5607 5607 5607 5607 5606 5606 5606 5605
5593 5593 5592 5591 5590 5589 5588 5587 5586 5585 5585 5584 5583 5583 5583 5583 5584 5585 5585 5586 5586 5587 5588 5589 5589 5590 5590 5591 5592 5593 5594 5594 5595 5595 5596 5596 5596 5596 5596 5596 5595 5595 5594
5584 5583 5582 5581 5581 5580 5579 5578 5577 5576 5576 5575 5574 5574 5574 5574 5575 5575 5575 5576 5577 5577 5578 5579 5579 5580 5581 5581 5582 5583 5584 5584 5585 5586 5586 5586 5586 5586 5586 5585 5585 5584 5583
5574 5573 5573 5572 5571 5570 5570 5569 5568 5568 5567 5566 5566 5565 5565 5565 5565 5566 5566 5567 5567 5567 5568 5569 5570 5571 5571 5572 5572 5573 5574 5575 5575 5576 5576 5577 5576 5576 5576 5575 5574 5574 5572
5564 5563 5563 5562 5562 5561 5560 5560 5559 5559 5558 5558 5557 5557 5556 5556 5557 5557 5557 5558 5558 5558 5559 5560 5561 5562 5562 5562 5563 5564 5564 5565 5566 5566 5567 5567 5567 5567 5566 5565 5564 5563 5562
5554 5553 5553 5552 5552 5551 5551 5550 5550 5549 5549 5549 5549 5548 5548 5548 5549 5549 5549 5549 5550 5550 5550 5551 5552 5553 5553 5554 5554 5555 5556 5556 5557 5558 5558 5558 5558 5558 5557 5556 5555 5554 5552
5544 5543 5543 5542 5542 5541 5541 5541 5541 5540 5540 5540 5539 5540 5540 5540 5540 5540 5541 5541 5541 5542 5542 5543 5544 5544 5545 5545 5546 5546 5547 5548 5549 5549 5550 5549 5549 5548 5547 5546 5545 5544 5543
5534 5533 5533 5533 5532 5532 5531 5531 5531 5531 5531 5531 5531 5531 5531 5532 5532 5532 5532 5533 5533 5534 5534 5535 5536 5536 5537 5537 5537 5538 5538 5539 5540 5540 5541 5541 5540 5539 5538 5537 5536 5535 5533
5524 5523 5523 5523 5522 5522 5522 5522 5522 5522 5522 5522 5522 5523 5523 5523 5524 5524 5525 5525 5525 5525 5526 5527 5527 5528 5528 5529 5529 5529 5530 5531 5531 5532 5532 5532 5531 5530 5529 5528 5526 5525 5524
5514 5514 5513 5513 5513 5513 5513 5513 5513 5513 5513 5514 5514 5515 5515 5515 5516 5516 5516 5517 5517 5518 5518 5519 5519 5520 5520 5520 5520 5521 5521 5522 5523 5523 5523 5523 5522 5521 5520 5519 5517 5516 5514
5505 5505 5504 5504 5504 5504 5504 5504 5504 5504 5504 5505 5506 5507 5507 5507 5507 5507 5508 5509 5509 5510 5510 5511 5511 5512 5512 5512 5512 5513 5513 5514 5514 5514 5514 5513 5513 5512 5511 5509 5508 5506 5505
5497 5496 5496 5496 5495 5495 5495 5495 5495 5496 5496 5497 5498 5498 5499 5500 5500 5500 5500 5500 5501 5501 5502 5503 5503 5504 5504 5504 5504 5504 5505 5505 5505 5505 5505 5505 5504 5503 5502 5500 5499 5497 5496
5489 5488 5487 5487 5487 5487 5487 5487 5487 5487 5488 5489 5490 5491 5491 5492 5492 5492 5492 5492 5493 5493 5493 5494 5494 5495 5495 5495 5495 5496 5496 5496 5496 5496 5496 5496 5495 5494 5493 5492 5491 5489 5487